sat.trackr.live / text

‹ back to catalog

STARLINK-30573

NORAD 58058 · 2023-158H

PAYLOAD ACTIVE UNKNOWN

§ Identity

Operator
Country
US
Launch date
2023-10-13
Launch site
AFETR
Launch vehicle
Mass (kg)
RCS (m²)

Purposes: comms

External: N2YO · Heavens-Above · Gunter

§ Orbital elements

Epoch: 2026-05-24T22:45:13.228128Z

Period
94.27 min
Inclination
43.0041°
Eccentricity
0.0002104
Mean motion
15.27579704 rev/d
Perigee alt
481.6 km
Apogee alt
484.5 km
Semi-major
6,861.2 km
B*
6.7628e-5
RAAN
316.2980°
Arg perigee
265.4670°
Mean anomaly
94.5941°
Rev number
14,523

§ Raw data

STARLINK-305731 58058U 23158H   26144.94806977  .00001599  00000+0  67628-4 0  99982 58058  43.0041 316.2980 0002104 265.4670  94.5941 15.27579704145230

JSON: /api/v1/satellites/58058 · /tle

For live sub-satellite position, see the globe view (requires WebGL).

§ Visibility from observer

Set your observer location to see the next 7 days of passes ≥ 10°. The values pass through the URL so the page stays shareable.

No JS? Fill the form by hand. The geolocation button needs JavaScript.